Location: Lalanga
(4.5882°N, 32.9072°E)
Time: 18:02:49
(UTC+00:00)

Cosmos 1939 Rocket - Pass Details

Date: 24 January 2020
Orbit: 534 x 583 km, 97.4° (Epoch: 22 February)

Event Time Altitude Azimuth Distance (km) Brightness Sun altitude
Rises 16:38:18 0° 159° (SSE) 2,675 6.3 -10.4°
Reaches altitude 10° 16:40:28 10° 153° (SSE) 1,785 5.3 -11.0°
Maximum altitude 16:44:11 47° 79° (ENE) 712 3.0 -11.8°
Drops below altitude 10° 16:47:54 10° 4° (N) 1,793 5.2 -12.7°
Sets 16:50:04 0° 358° (N) 2,689 6.2 -13.2°
